period_start,C,m1,H,J0,J1,J2,J3,J4,J5,JA,JB,JC,JD,JJ,JK,JN,#
2015-11-07 00:00:53,0.05,2.61,0.00,17.03,21.44,25.43,15.05,50.17,1029.84,2055.07,2633.08,2614.74,2851.38,599.78,616.06,51.70,0000 0000 0000 0000 000000
2015-11-07 00:05:54,0.05,2.61,0.00,17.02,21.42,25.36,15.07,50.00,1029.82,2055.11,2632.34,2614.05,2850.99,599.97,616.19,51.75,0000 0000 0000 0000 000000
2015-11-07 00:10:55,0.02,2.61,0.00,17.02,21.42,25.37,15.14,50.17,1029.81,2055.14,2631.99,2613.78,2850.73,599.98,616.22,51.80,0000 0000 0000 0000 000000
2015-11-07 00:15:57,0.04,2.62,0.00,17.02,21.42,25.38,15.16,49.98,1029.82,2055.13,2631.37,2613.18,2850.05,600.12,616.35,51.85,0000 0000 0000 0000 000000
2015-11-07 00:20:58,0.02,2.62,0.00,17.02,21.42,25.45,15.10,50.08,1029.83,2055.22,2631.00,2613.03,2849.95,600.16,616.24,51.91,0000 0000 0000 0000 000000
2015-11-07 00:25:59,0.04,2.62,0.00,17.03,21.42,25.38,15.14,50.08,1029.85,2055.26,2630.30,2612.92,2849.19,599.92,616.16,51.96,0000 0000 0000 0000 000000
2015-11-07 00:31:00,0.09,2.62,0.00,17.03,21.42,25.34,15.04,49.98,1029.86,2055.65,2629.65,2612.18,2848.97,599.82,615.92,52.01,0000 0000 0000 0000 000000
2015-11-07 00:36:02,0.02,2.63,0.00,17.02,21.42,25.40,15.17,50.08,1029.97,2055.67,2629.02,2611.96,2848.26,599.99,616.30,52.06,0000 0000 0000 0000 000000
2015-11-07 00:41:03,0.03,2.63,0.00,17.02,21.42,25.35,15.13,50.00,1029.88,2055.32,2628.35,2611.17,2847.67,600.06,616.30,52.11,0000 0000 0000 0000 000000
2015-11-07 00:46:04,0.08,2.63,0.00,17.02,21.41,25.41,15.06,50.02,1029.88,2055.24,2627.08,2610.33,2846.62,600.39,616.65,52.16,0000 0000 0000 0000 000000
2015-11-07 00:51:05,0.09,2.63,0.00,17.02,21.41,25.42,15.11,50.03,1029.84,2055.17,2625.50,2609.18,2845.43,599.58,615.87,52.21,0000 0000 0000 0000 000000
2015-11-07 00:56:07,0.07,2.64,0.00,17.02,21.40,25.41,15.15,49.99,1029.83,2055.16,2624.33,2608.47,2844.73,600.03,616.28,52.26,0000 0000 0000 0000 000000
2015-11-07 01:01:08,0.05,2.64,0.00,17.02,21.40,25.31,15.12,50.09,1029.81,2055.33,2623.30,2608.00,2844.02,599.91,616.08,52.31,0000 0000 0000 0000 000000
2015-11-07 01:06:09,0.06,2.64,0.00,17.01,21.40,25.35,15.06,50.10,1029.80,2055.40,2623.00,2607.40,2843.57,599.86,616.15,52.36,0000 0000 0000 0000 000000
2015-11-07 01:11:11,0.03,2.65,0.00,17.00,21.40,25.35,15.05,50.19,1029.81,2055.46,2622.29,2607.00,2843.02,600.07,616.28,52.41,0000 0000 0000 0000 000000
2015-11-07 01:16:12,0.02,2.65,0.00,17.00,21.40,25.32,15.14,50.16,1029.81,2055.44,2621.96,2606.72,2842.71,599.84,616.06,52.46,0000 0000 0000 0000 000000
2015-11-07 01:21:13,0.04,2.65,0.00,17.03,21.40,25.37,15.07,50.08,1029.81,2055.25,2621.16,2606.04,2842.02,599.92,616.18,52.51,0000 0000 0000 0000 000000
2015-11-07 01:26:14,0.05,2.65,0.00,17.04,21.40,25.39,15.08,50.10,1029.81,2055.35,2620.68,2605.84,2841.71,599.84,615.98,52.56,0000 0000 0000 0000 000000
2015-11-07 01:31:16,0.04,2.65,0.00,17.07,21.40,25.41,15.13,50.17,1029.80,2055.39,2620.02,2605.11,2841.05,600.04,616.07,52.61,0000 0000 0000 0000 000000
2015-11-07 01:36:17,0.07,2.65,0.00,17.09,21.41,25.40,15.08,50.13,1029.81,2055.33,2619.25,2604.74,2840.38,600.13,616.19,52.66,0000 0000 0000 0000 000000
2015-11-07 01:41:18,0.01,2.66,0.00,17.12,21.42,25.40,15.10,50.13,1029.81,2055.13,2618.50,2604.02,2839.82,599.90,616.03,52.71,0000 0000 0000 0000 000000
2015-11-07 01:46:19,0.07,2.66,0.00,17.14,21.42,25.36,15.13,50.20,1029.80,2055.08,2617.50,2603.22,2839.04,600.21,616.23,52.76,0000 0000 0000 0000 000000
2015-11-07 01:51:20,0.02,2.66,0.00,17.09,21.42,25.40,15.12,50.13,1029.81,2055.09,2616.97,2602.98,2838.36,599.95,616.18,52.81,0000 0000 0000 0000 000000
2015-11-07 01:56:21,0.05,2.66,0.00,17.07,21.42,25.33,15.04,50.16,1029.82,2055.08,2616.17,2602.28,2837.99,599.90,616.10,52.86,0000 0000 0000 0000 000000
2015-11-07 02:01:23,0.02,2.67,0.00,17.06,21.43,25.33,15.09,50.21,1029.81,2055.06,2615.85,2601.99,2837.57,600.06,616.30,52.92,0000 0000 0000 0000 000000
2015-11-07 02:06:24,0.04,2.67,0.00,17.00,21.44,25.38,15.14,50.19,1029.81,2055.06,2615.11,2601.56,2837.01,600.10,616.38,52.97,0000 0000 0000 0000 000000
2015-11-07 02:11:25,0.04,2.67,0.00,16.93,21.44,25.41,15.12,50.22,1029.81,2055.07,2614.60,2601.02,2836.62,600.29,616.76,53.02,0000 0000 0000 0000 000000
2015-11-07 02:16:27,0.02,2.67,0.00,16.90,21.43,25.40,15.11,50.11,1029.80,2055.03,2613.99,2600.85,2836.02,599.87,616.34,53.07,0000 0000 0000 0000 000000
2015-11-07 02:21:28,0.05,2.67,0.00,16.86,21.42,25.37,15.10,50.08,1029.80,2055.03,2613.27,2600.11,2835.84,599.82,616.35,53.12,0000 0000 0000 0000 000000
2015-11-07 02:26:29,0.02,2.68,0.00,16.84,21.42,25.38,15.19,50.04,1029.80,2055.07,2612.93,2599.99,2835.10,600.08,616.66,53.17,0000 0000 0000 0000 000000
2015-11-07 02:31:31,0.04,2.68,0.00,16.82,21.42,25.34,15.13,50.00,1029.81,2055.10,2612.42,2599.70,2834.98,599.87,616.62,53.22,0000 0000 0000 0000 000000
2015-11-07 02:36:32,0.04,2.68,0.00,16.82,21.42,25.37,15.12,49.92,1029.80,2055.12,2611.97,2599.04,2834.34,600.20,616.84,53.27,0000 0000 0000 0000 000000
2015-11-07 02:41:33,0.02,2.68,0.00,16.81,21.40,25.38,15.13,50.08,1029.80,2055.14,2611.29,2598.97,2834.00,599.87,616.42,53.32,0000 0000 0000 0000 000000
2015-11-07 02:46:35,0.08,2.68,0.00,16.79,21.39,25.35,15.20,50.12,1029.80,2055.37,2610.91,2598.29,2833.61,599.87,616.76,53.37,0000 0000 0000 0000 000000
2015-11-07 02:51:36,0.01,2.69,0.00,16.79,21.39,25.29,15.19,50.23,1029.80,2055.34,2610.11,2598.00,2833.01,600.11,616.77,53.42,0000 0000 0000 0000 000000
2015-11-07 02:56:37,0.06,2.69,0.00,16.79,21.39,25.36,15.06,50.21,1029.80,2055.46,2609.73,2597.63,2832.81,599.73,616.30,53.47,0000 0000 0000 0000 000000
2015-11-07 03:01:38,0.03,2.69,0.00,16.78,21.37,25.31,15.16,50.17,1029.80,2055.54,2609.06,2597.04,2832.07,600.12,616.86,53.52,0000 0000 0000 0000 000000
2015-11-07 03:06:40,0.01,2.69,0.00,16.77,21.37,25.32,15.17,50.20,1029.80,2055.75,2608.99,2597.00,2831.98,599.98,616.50,53.57,0000 0000 0000 0000 000000
2015-11-07 03:11:41,0.06,2.69,0.00,16.79,21.36,25.33,15.08,50.20,1029.80,2055.60,2608.38,2596.46,2831.35,600.08,616.74,53.62,0000 0000 0000 0000 000000
2015-11-07 03:16:42,0.04,2.70,0.00,16.80,21.34,25.26,15.15,50.20,1029.80,2055.82,2607.84,2596.02,2830.99,600.07,616.69,53.67,0000 0000 0000 0000 000000
2015-11-07 03:21:43,0.04,2.70,0.00,16.82,21.34,25.25,15.15,50.22,1029.80,2055.93,2607.04,2595.93,2830.61,600.36,617.03,53.72,0000 0000 0000 0000 000000
2015-11-07 03:26:45,0.05,2.70,0.00,16.82,21.33,25.29,15.13,50.23,1029.80,2055.95,2606.35,2595.18,2830.04,600.11,616.76,53.78,0000 0000 0000 0000 000000
2015-11-07 03:31:46,0.01,2.70,0.00,16.84,21.32,25.29,15.21,50.22,1029.78,2055.98,2605.99,2595.00,2829.82,600.39,616.94,53.83,0000 0000 0000 0000 000000
2015-11-07 03:36:47,0.06,2.71,0.00,16.86,21.31,25.19,15.13,50.22,1029.78,2055.98,2605.28,2594.42,2829.08,600.14,616.64,53.88,0000 0000 0000 0000 000000
2015-11-07 03:41:49,0.01,2.71,0.00,16.89,21.30,25.21,15.15,50.10,1029.77,2055.98,2604.89,2594.01,2828.95,599.99,616.37,53.93,0000 0000 0000 0000 000000
2015-11-07 03:46:50,0.04,2.71,0.00,16.91,21.29,25.22,15.07,50.02,1029.68,2055.99,2604.07,2593.92,2828.20,600.04,616.54,53.98,0000 0000 0000 0000 000000
2015-11-07 03:51:51,0.03,2.71,0.00,16.93,21.29,25.18,15.12,50.15,1029.75,2055.99,2603.86,2593.26,2827.99,599.97,616.35,54.03,0000 0000 0000 0000 000000
2015-11-07 03:56:52,0.04,2.71,0.00,16.94,21.29,25.21,15.09,50.12,1029.58,2055.99,2603.04,2592.98,2827.31,599.81,615.99,54.08,0000 0000 0000 0000 000000
2015-11-07 04:01:54,0.05,2.72,0.00,16.94,21.29,25.19,15.09,50.06,1029.67,2055.99,2602.45,2592.25,2826.96,599.71,615.95,54.13,0000 0000 0000 0000 000000
2015-11-07 04:06:55,0.02,2.72,0.00,16.95,21.30,25.21,15.13,50.13,1029.51,2055.99,2602.01,2592.00,2826.25,599.99,616.30,54.18,0000 0000 0000 0000 000000
2015-11-07 04:11:56,0.03,2.72,0.00,16.97,21.31,25.25,15.07,50.12,1029.65,2055.99,2601.67,2591.57,2825.97,600.02,616.26,54.23,0000 0000 0000 0000 000000
2015-11-07 04:16:57,0.04,2.72,0.00,16.98,21.32,25.24,15.07,50.00,1029.76,2055.99,2600.99,2591.01,2825.17,599.81,616.20,54.28,0000 0000 0000 0000 000000
2015-11-07 04:21:59,0.05,2.72,0.00,16.99,21.32,25.24,15.12,50.15,1029.79,2055.98,2600.14,2590.58,2824.94,599.98,616.07,54.33,0000 0000 0000 0000 000000
2015-11-07 04:27:00,0.03,2.73,0.00,17.00,21.32,25.23,15.02,50.05,1029.80,2055.97,2599.83,2590.01,2824.13,599.86,616.19,54.38,0000 0000 0000 0000 000000
2015-11-07 04:32:01,0.04,2.73,0.00,17.01,21.34,25.30,15.14,50.17,1029.80,2055.97,2599.04,2589.57,2823.92,600.19,616.44,54.43,0000 0000 0000 0000 000000
2015-11-07 04:37:02,0.04,2.73,0.00,17.02,21.34,25.28,15.07,50.03,1029.80,2055.96,2598.43,2589.03,2823.12,600.03,616.19,54.48,0000 0000 0000 0000 000000
2015-11-07 04:42:04,0.01,2.73,0.00,17.02,21.34,25.31,15.09,50.15,1029.80,2055.97,2597.99,2588.95,2822.97,599.91,616.17,54.53,0000 0000 0000 0000 000000
2015-11-07 04:47:05,0.07,2.73,0.00,17.02,21.34,25.23,15.13,50.14,1029.80,2055.98,2597.26,2588.20,2822.24,600.09,616.27,54.58,0000 0000 0000 0000 000000
2015-11-07 04:52:06,0.01,2.73,0.00,17.04,21.35,25.26,15.16,50.12,1029.80,2055.97,2596.78,2587.96,2821.94,600.11,616.27,54.63,0000 0000 0000 0000 000000
2015-11-07 04:57:07,0.06,2.74,0.00,17.05,21.37,25.32,15.15,50.08,1029.80,2055.96,2596.06,2587.33,2821.21,600.30,616.48,54.68,0000 0000 0000 0000 000000
2015-11-07 05:02:09,0.00,2.74,0.00,17.07,21.37,25.27,15.14,50.17,1029.80,2055.97,2595.99,2587.03,2821.00,600.16,616.43,54.74,0000 0000 0000 0000 000000
2015-11-07 05:07:10,0.06,2.74,0.00,17.07,21.37,25.26,15.18,50.12,1029.81,2055.95,2595.33,2586.57,2820.36,600.10,616.23,54.79,0000 0000 0000 0000 000000
2015-11-07 05:12:11,0.04,2.74,0.00,17.07,21.37,25.29,15.09,50.02,1029.80,2055.93,2594.20,2585.99,2819.77,600.03,616.14,54.84,0000 0000 0000 0000 000000
2015-11-07 05:17:12,0.05,2.75,0.00,17.08,21.37,25.32,15.02,50.11,1029.80,2055.97,2593.84,2585.52,2819.07,599.56,615.62,54.89,0000 0000 0000 0000 000000
2015-11-07 05:22:14,0.02,2.75,0.00,17.09,21.37,25.36,15.05,50.11,1029.80,2055.96,2593.37,2585.02,2818.82,599.83,615.96,54.94,0000 0000 0000 0000 000000
2015-11-07 05:27:15,0.05,2.75,0.00,17.09,21.38,25.33,15.15,50.08,1029.80,2055.91,2592.66,2584.66,2818.08,599.90,615.96,54.99,0000 0000 0000 0000 000000
2015-11-07 05:32:16,0.03,2.75,0.00,17.10,21.39,25.34,15.07,50.05,1029.80,2055.90,2591.96,2584.03,2817.69,599.84,615.92,55.04,0000 0000 0000 0000 000000
2015-11-07 05:37:17,0.04,2.75,0.00,17.12,21.39,25.35,15.11,50.02,1029.80,2055.83,2591.16,2583.70,2817.03,600.09,616.09,55.09,0000 0000 0000 0000 000000
2015-11-07 05:42:19,0.02,2.76,0.00,17.13,21.39,25.31,15.07,50.02,1029.80,2055.86,2590.95,2583.07,2816.79,600.02,615.91,55.14,0000 0000 0000 0000 000000
2015-11-07 05:47:20,0.04,2.76,0.00,17.13,21.39,25.31,15.05,50.01,1029.80,2055.89,2590.17,2582.95,2816.06,599.97,615.88,55.19,0000 0000 0000 0000 000000
2015-11-07 05:52:22,0.02,2.76,0.00,17.13,21.39,25.30,15.12,50.08,1029.80,2055.77,2589.87,2582.31,2815.98,600.15,616.12,55.24,0000 0000 0000 0000 000000
2015-11-07 05:57:23,0.04,2.76,0.00,17.00,21.39,25.26,15.16,50.07,1029.80,2055.73,2589.15,2582.00,2815.26,600.13,616.54,55.29,0000 0000 0000 0000 000000
2015-11-07 06:02:24,0.07,2.76,0.00,16.84,21.39,25.35,15.24,50.17,1029.80,2055.82,2588.19,2581.44,2814.86,600.17,616.79,55.34,0000 0000 0000 0000 000000
2015-11-07 06:07:25,0.02,2.77,0.00,16.70,21.39,25.29,15.14,50.07,1029.81,2055.82,2587.81,2581.01,2814.07,600.17,617.06,55.39,0000 0000 0000 0000 000000
2015-11-07 06:12:27,0.02,2.77,0.00,16.44,21.38,25.33,15.16,50.07,1029.82,2055.84,2587.11,2580.83,2813.89,600.11,617.56,55.44,0000 0000 0000 0000 000000
2015-11-07 06:17:28,0.07,2.77,0.00,16.17,21.35,25.35,15.25,50.17,1029.83,2055.89,2586.69,2580.10,2813.12,599.92,617.93,55.49,0000 0000 0000 0000 000000
2015-11-07 06:22:29,0.01,2.77,0.00,16.02,21.33,25.31,15.21,50.15,1029.87,2055.97,2586.01,2579.99,2812.99,600.05,618.37,55.54,0000 0000 0000 0000 000000
2015-11-07 06:27:30,0.05,2.77,0.00,15.90,21.30,25.28,15.22,50.13,1029.82,2055.96,2585.20,2579.69,2812.45,600.27,618.73,55.59,0000 0000 0000 0000 000000
2015-11-07 06:32:31,0.02,2.78,0.00,15.73,21.26,25.23,15.27,50.26,1029.81,2055.99,2584.88,2579.05,2812.02,599.67,618.62,55.65,0000 0000 0000 0000 000000
2015-11-07 06:37:33,0.02,2.78,0.00,15.57,21.22,25.11,15.18,50.23,1029.81,2055.99,2584.07,2578.99,2811.96,599.75,619.05,55.70,0000 0000 0000 0000 000000
2015-11-07 06:42:34,0.05,2.78,0.00,15.45,21.18,25.09,15.26,50.33,1029.80,2056.01,2583.44,2578.86,2811.28,599.79,619.36,55.75,0000 0000 0000 0000 000000
2015-11-07 06:47:35,0.02,2.78,0.00,15.36,21.13,24.99,15.19,50.31,1029.80,2056.06,2583.22,2578.45,2811.03,599.61,619.33,55.80,0000 0000 0000 0000 000000
2015-11-07 06:52:36,0.08,2.78,0.00,15.26,21.08,24.89,15.26,50.35,1029.81,2056.49,2582.73,2578.02,2810.97,599.92,619.89,55.85,0000 0000 0000 0000 000000
2015-11-07 06:57:38,0.06,2.79,0.00,15.10,21.02,24.79,15.22,50.26,1029.80,2056.92,2581.89,2577.97,2810.27,599.95,620.30,55.90,0000 0000 0000 0000 000000
2015-11-07 07:02:39,0.05,2.79,0.00,15.01,20.96,24.75,15.30,50.52,1029.80,2056.99,2581.11,2577.35,2810.00,600.26,620.74,55.95,0000 0000 0000 0000 000000
2015-11-07 07:07:40,0.00,2.79,0.00,14.96,20.90,24.65,15.30,50.48,1029.80,2057.00,2580.99,2577.07,2809.99,599.99,620.54,56.00,0000 0000 0000 0000 000000
2015-11-07 07:12:41,0.05,2.79,0.00,14.86,20.84,24.64,15.28,50.42,1029.80,2057.20,2580.42,2577.01,2809.90,599.95,620.76,56.05,0000 0000 0000 0000 000000
2015-11-07 07:17:42,0.07,2.80,0.00,14.76,20.78,24.60,15.35,50.55,1029.80,2057.68,2580.02,2577.00,2809.27,600.14,621.17,56.10,0000 0000 0000 0000 000000
2015-11-07 07:22:44,0.02,2.80,0.00,14.70,20.71,24.45,15.30,50.56,1029.80,2057.97,2579.93,2576.98,2809.03,600.04,621.21,56.15,0000 0000 0000 0000 000000
2015-11-07 07:27:45,0.01,2.80,0.00,14.62,20.65,24.38,15.36,50.61,1029.80,2058.00,2579.41,2576.98,2809.00,599.91,621.24,56.20,0000 0000 0000 0000 000000
2015-11-07 07:32:46,0.02,2.80,0.00,14.57,20.59,24.34,15.30,50.50,1029.74,2058.14,2579.17,2576.86,2809.00,600.06,621.48,56.25,0000 0000 0000 0000 000000
2015-11-07 07:37:47,0.07,2.80,0.00,14.47,20.52,24.22,15.36,50.61,1029.77,2058.81,2579.27,2576.80,2808.99,600.09,621.68,56.30,0000 0000 0000 0000 000000
2015-11-07 07:42:48,0.03,2.81,0.00,14.39,20.45,24.13,15.35,50.60,1029.75,2058.98,2578.93,2576.30,2808.98,600.21,622.15,56.35,0000 0000 0000 0000 000000
2015-11-07 07:47:49,0.01,2.81,0.00,14.37,20.38,24.08,15.36,50.53,1029.79,2059.00,2578.79,2576.33,2808.97,600.02,621.89,56.40,0000 0000 0000 0000 000000
2015-11-07 07:52:51,0.04,2.81,0.00,14.33,20.32,24.04,15.28,50.37,1029.80,2059.11,2578.14,2576.07,2808.75,600.13,622.08,56.45,0000 0000 0000 0000 000000
2015-11-07 07:57:52,0.08,2.81,0.00,14.25,20.25,23.92,15.34,50.55,1029.80,2059.71,2578.05,2576.03,2808.34,600.10,622.25,56.51,0000 0000 0000 0000 000000
2015-11-07 08:02:53,0.01,2.81,0.00,14.18,20.18,23.91,15.42,50.55,1029.80,2059.97,2577.95,2576.01,2808.04,600.27,622.67,56.56,0000 0000 0000 0000 000000
2015-11-07 08:07:54,0.01,2.82,0.00,14.13,20.11,23.79,15.34,50.67,1029.79,2059.99,2577.45,2575.99,2808.01,599.96,622.33,56.61,0000 0000 0000 0000 000000
2015-11-07 08:12:56,0.02,2.82,0.00,14.10,20.04,23.77,15.33,50.63,1029.77,2060.04,2576.86,2575.84,2807.92,600.13,622.60,56.66,0000 0000 0000 0000 000000
2015-11-07 08:17:57,0.16,2.82,0.00,14.08,19.97,23.67,15.36,50.64,1029.70,2060.65,2575.79,2575.07,2807.12,600.20,622.65,56.71,0000 0000 0000 0000 000000
2015-11-07 08:22:58,0.09,2.83,0.00,13.99,19.90,23.64,15.39,50.60,1029.65,2060.96,2574.64,2574.36,2806.32,600.16,622.79,56.76,0000 0000 0000 0000 000000
2015-11-07 08:27:59,0.10,2.83,0.00,13.94,19.83,23.57,15.31,50.62,1029.49,2060.99,2572.80,2573.29,2805.15,599.97,622.64,56.81,0000 0000 0000 0000 000000
2015-11-07 08:33:01,0.09,2.84,0.00,13.92,19.77,23.46,15.37,50.68,1029.51,2061.02,2571.10,2572.25,2804.08,599.99,622.65,56.86,0000 0000 0000 0000 000000
2015-11-07 08:38:02,0.16,2.84,0.00,13.86,19.70,23.37,15.42,50.58,1029.57,2061.41,2569.56,2571.41,2803.12,600.17,623.02,56.91,0000 0000 0000 0000 000000
2015-11-07 08:43:03,0.07,2.85,0.00,13.81,19.64,23.34,15.35,50.67,1029.48,2061.93,2568.32,2570.99,2802.56,599.90,622.79,56.96,0000 0000 0000 0000 000000
2015-11-07 08:48:04,0.01,2.85,0.00,13.75,19.57,23.26,15.31,50.50,1029.46,2061.99,2568.00,2570.96,2802.09,599.87,622.86,57.01,0000 0000 0000 0000 000000
2015-11-07 08:53:06,0.02,2.85,0.00,13.74,19.51,23.27,15.40,50.60,1029.46,2062.05,2567.90,2570.86,2802.02,600.06,623.05,57.06,0000 0000 0000 0000 000000
2015-11-07 08:58:07,0.11,2.86,0.00,13.72,19.45,23.20,15.35,50.61,1029.40,2062.53,2567.11,2570.26,2802.00,599.95,623.00,57.11,0000 0000 0000 0000 000000
2015-11-07 09:03:08,0.02,2.86,0.00,13.64,19.39,23.07,15.39,50.72,1029.53,2062.95,2567.03,2570.17,2802.00,600.19,623.45,57.16,0000 0000 0000 0000 000000
2015-11-07 09:08:09,0.01,2.86,0.00,13.62,19.33,23.13,15.37,50.75,1029.67,2062.99,2566.98,2570.12,2801.99,600.10,623.45,57.21,0000 0000 0000 0000 000000
2015-11-07 09:13:11,0.02,2.86,0.00,13.59,19.28,23.01,15.35,50.67,1029.64,2063.00,2566.23,2570.00,2801.84,599.96,623.35,57.26,0000 0000 0000 0000 000000
2015-11-07 09:18:12,0.04,2.86,0.00,13.58,19.22,22.89,15.34,50.63,1029.56,2063.20,2566.01,2570.00,2801.34,599.89,623.35,57.31,0000 0000 0000 0000 000000
2015-11-07 09:23:14,0.07,2.87,0.00,13.57,19.17,22.91,15.38,50.69,1029.38,2063.81,2565.97,2569.98,2801.05,599.89,623.36,57.36,0000 0000 0000 0000 000000
2015-11-07 09:28:15,0.01,2.87,0.00,13.47,19.12,22.84,15.37,50.70,1029.34,2063.98,2565.88,2569.98,2801.03,599.87,623.37,57.42,0000 0000 0000 0000 000000
2015-11-07 09:33:16,0.01,2.87,0.00,13.45,19.06,22.82,15.37,50.56,1029.34,2064.00,2565.75,2569.97,2801.01,600.08,623.68,57.47,0000 0000 0000 0000 000000
2015-11-07 09:38:18,0.03,2.87,0.00,13.44,19.01,22.76,15.39,50.70,1029.34,2064.09,2565.13,2569.94,2801.00,599.96,623.57,57.52,0000 0000 0000 0000 000000
2015-11-07 09:43:19,0.06,2.87,0.00,13.43,18.96,22.64,15.35,50.58,1029.40,2064.44,2565.00,2569.71,2801.00,599.99,623.62,57.57,0000 0000 0000 0000 000000
2015-11-07 09:48:20,0.05,2.88,0.00,13.42,18.91,22.65,15.38,50.62,1029.40,2064.94,2564.85,2569.21,2800.97,599.98,623.58,57.62,0000 0000 0000 0000 000000
2015-11-07 09:53:22,0.03,2.88,0.00,13.36,18.86,22.64,15.39,50.63,1029.39,2064.99,2564.40,2569.05,2800.70,600.11,624.03,57.67,0000 0000 0000 0000 000000
2015-11-07 09:58:23,0.03,2.88,0.00,13.34,18.82,22.55,15.32,50.58,1029.35,2064.99,2563.67,2569.00,2800.07,600.04,623.82,57.72,0000 0000 0000 0000 000000
2015-11-07 10:03:25,0.03,2.88,0.00,13.32,18.77,22.55,15.37,50.65,1029.32,2065.10,2563.07,2568.96,2800.00,600.06,623.97,57.77,0000 0000 0000 0000 000000
2015-11-07 10:08:26,0.08,2.89,0.00,13.32,18.73,22.52,15.40,50.67,1029.31,2065.63,2562.92,2568.43,2799.95,600.09,623.98,57.82,0000 0000 0000 0000 000000
2015-11-07 10:13:27,0.06,2.89,0.00,13.31,18.68,22.44,15.30,50.61,1029.32,2065.95,2562.54,2568.03,2799.33,600.14,624.05,57.87,0000 0000 0000 0000 000000
2015-11-07 10:18:29,0.02,2.89,0.00,13.23,18.64,22.46,15.38,50.69,1029.32,2065.99,2561.57,2567.98,2799.00,600.02,624.19,57.92,0000 0000 0000 0000 000000
2015-11-07 10:23:30,0.01,2.89,0.00,13.19,18.60,22.42,15.29,50.67,1029.32,2066.01,2561.02,2567.89,2798.94,599.74,624.04,57.97,0000 0000 0000 0000 000000
2015-11-07 10:28:31,0.06,2.89,0.00,13.19,18.57,22.41,15.38,50.82,1029.31,2066.05,2560.70,2567.17,2798.21,600.21,624.37,58.02,0000 0000 0000 0000 000000
2015-11-07 10:33:33,0.06,2.90,0.00,13.19,18.53,22.37,15.39,50.87,1029.31,2066.40,2560.03,2567.00,2798.00,600.19,624.32,58.07,0000 0000 0000 0000 000000
2015-11-07 10:38:34,0.05,2.90,0.00,13.18,18.49,22.33,15.36,50.70,1029.31,2066.89,2559.76,2566.90,2797.79,599.81,623.99,58.12,0000 0000 0000 0000 000000
2015-11-07 10:43:36,0.06,2.90,0.00,13.17,18.45,22.28,15.44,50.71,1029.31,2066.98,2559.03,2566.25,2797.07,600.08,624.28,58.17,0000 0000 0000 0000 000000
2015-11-07 10:48:37,0.00,2.90,0.00,13.15,18.42,22.21,15.37,50.71,1029.31,2066.98,2559.00,2566.02,2796.99,599.95,624.12,58.22,0000 0000 0000 0000 000000
2015-11-07 10:53:38,0.03,2.90,0.00,13.15,18.38,22.24,15.43,50.73,1029.31,2066.99,2558.49,2565.97,2796.70,600.27,624.48,58.27,0000 0000 0000 0000 000000
2015-11-07 10:58:39,0.03,2.91,0.00,13.14,18.35,22.23,15.31,50.68,1029.30,2067.02,2558.00,2565.63,2796.06,599.98,624.22,58.33,0000 0000 0000 0000 000000
2015-11-07 11:03:41,0.03,2.91,0.00,13.11,18.32,22.24,15.33,50.72,1029.26,2067.05,2557.67,2565.05,2795.99,600.00,624.19,58.38,0000 0000 0000 0000 000000
2015-11-07 11:08:42,0.04,2.91,0.00,13.13,18.29,22.21,15.38,50.68,1029.11,2067.15,2557.00,2564.97,2795.51,600.22,624.46,58.43,0000 0000 0000 0000 000000
2015-11-07 11:13:44,0.08,2.91,0.00,13.09,18.26,22.17,15.43,50.67,1029.17,2067.54,2556.66,2564.57,2795.01,600.10,624.36,58.48,0000 0000 0000 0000 000000
2015-11-07 11:18:45,0.07,2.92,0.00,13.04,18.23,22.12,15.36,50.67,1029.26,2067.89,2555.99,2564.04,2794.80,600.10,624.51,58.53,0000 0000 0000 0000 000000
2015-11-07 11:23:46,0.02,2.92,0.00,13.04,18.21,22.08,15.31,50.62,1029.28,2067.97,2555.62,2563.99,2794.12,599.91,624.41,58.58,0000 0000 0000 0000 000000
2015-11-07 11:28:47,0.00,2.92,0.00,13.02,18.18,22.11,15.33,50.77,1029.18,2067.99,2555.69,2563.93,2794.01,599.97,624.40,58.63,0000 0000 0000 0000 000000
2015-11-07 11:33:48,0.06,2.92,0.00,13.02,18.16,22.11,15.29,50.71,1029.10,2067.99,2555.04,2563.15,2793.76,599.85,624.26,58.68,0000 0000 0000 0000 000000
2015-11-07 11:38:50,0.04,2.93,0.00,13.01,18.13,22.07,15.31,50.68,1029.13,2068.00,2554.07,2562.96,2793.07,599.72,624.23,58.73,0000 0000 0000 0000 000000
2015-11-07 11:43:51,0.07,2.93,0.00,13.02,18.11,22.06,15.45,50.70,1029.13,2068.04,2553.08,2562.24,2792.57,600.37,624.87,58.78,0000 0000 0000 0000 000000
2015-11-07 11:48:52,0.02,2.93,0.00,13.02,18.09,22.03,15.43,50.78,1029.05,2068.09,2552.78,2562.00,2792.04,600.18,624.56,58.83,0000 0000 0000 0000 000000
2015-11-07 11:53:54,0.04,2.93,0.00,13.03,18.07,22.00,15.35,50.72,1028.86,2068.15,2552.08,2561.70,2791.83,600.05,624.24,58.88,0000 0000 0000 0000 000000
2015-11-07 11:58:55,0.10,2.94,0.00,13.02,18.04,21.99,15.29,50.64,1028.83,2068.50,2551.43,2561.05,2791.08,599.78,623.86,58.93,0000 0000 0000 0000 000000
2015-11-07 12:03:57,0.04,2.94,0.00,12.98,18.02,21.98,15.39,50.67,1028.83,2068.86,2550.97,2560.95,2790.89,600.06,624.41,58.98,0000 0000 0000 0000 000000
2015-11-07 12:08:58,0.06,2.94,0.00,12.93,18.00,21.97,15.38,50.73,1028.84,2068.95,2550.64,2560.46,2790.26,599.88,624.36,59.03,0000 0000 0000 0000 000000
2015-11-07 12:13:59,0.00,2.94,0.00,12.90,17.98,21.95,15.34,50.71,1028.83,2068.96,2550.35,2560.02,2790.00,599.90,624.31,59.08,0000 0000 0000 0000 000000
2015-11-07 12:19:01,0.03,2.94,0.00,12.92,17.96,21.93,15.37,50.82,1028.83,2068.97,2549.80,2559.95,2789.54,599.76,624.19,59.14,0000 0000 0000 0000 000000
2015-11-07 12:24:02,0.04,2.95,0.00,12.92,17.94,21.94,15.28,50.68,1028.82,2068.99,2549.09,2559.28,2789.02,599.70,624.15,59.19,0000 0000 0000 0000 000000
2015-11-07 12:29:04,0.04,2.95,0.00,12.91,17.92,21.88,15.38,50.76,1028.82,2068.99,2548.42,2559.00,2788.64,600.15,624.67,59.24,0000 0000 0000 0000 000000
2015-11-07 12:34:05,0.01,2.95,0.00,12.91,17.89,21.89,15.41,50.83,1028.82,2068.99,2547.80,2558.97,2788.03,599.99,624.38,59.29,0000 0000 0000 0000 000000
2015-11-07 12:39:06,0.04,2.95,0.00,12.89,17.88,21.87,15.43,50.73,1028.82,2069.01,2547.28,2558.52,2787.92,599.90,624.40,59.34,0000 0000 0000 0000 000000
2015-11-07 12:44:08,0.05,2.96,0.00,12.92,17.87,21.88,15.32,50.79,1028.82,2069.03,2546.49,2558.02,2787.21,599.93,624.45,59.39,0000 0000 0000 0000 000000
2015-11-07 12:49:09,0.03,2.96,0.00,12.90,17.84,21.86,15.40,50.70,1028.83,2069.11,2545.98,2557.71,2786.92,599.94,624.42,59.44,0000 0000 0000 0000 000000
2015-11-07 12:54:10,0.07,2.96,0.00,12.90,17.83,21.77,15.47,50.81,1028.83,2069.29,2545.14,2557.05,2786.14,600.17,624.68,59.49,0000 0000 0000 0000 000000